Regional Weather Roundup
Issued by NWS Sioux Falls, SD

Home | Current Version | Previous Version | Text Only | Print | Product List | Glossary On
Versions: 1 2 3 4 5 6 7 8 9 10 11 12 13 14 15 16 17 18 19 20 21 22 23 24 25 26 27 28 29 30 31 32 33 34 35 36 37 38 39 40 41 42 43 44 45 46 47 48 49 50
000
ASUS43 KFSD 201002
RWRFSD

WEATHER ROUNDUP FOR SE SOUTH DAKOTA/SW MINNESOTA/NW IOWA
NATIONAL WEATHER SERVICE SIOUX FALLS SD
500 AM CDT SUN APR 20 2014

NOTE: "FAIR" INDICATES FEW OR NO CLOUDS BELOW 12,000 FEET WITH NO
SIGNIFICANT WEATHER AND OR OBSTRUCTIONS TO VISIBILITY.


SDZ038>040-050-052>070-201100-
SOUTHEAST SOUTH DAKOTA

CITY           SKY/WX    TMP DP  RH WIND       PRES   REMARKS
CHAMBERLAIN      N/A     39  26  59 S5        30.01R
HURON          PTCLDY    36  29  75 CALM      30.01R
MADISON        FAIR      37  27  65 N5        30.02S
MITCHELL       CLEAR     37  29  72 CALM      30.01F
SIOUX FALLS    CLOUDY    52  40  63 NE6       30.00S
WINNER         FAIR      46  22  38 S5        30.01S
YANKTON        CLEAR     50  37  62 N3        29.99F
$$

MNZ071-072-080-081-089-090-097-098-201100-
SOUTHWEST MINNESOTA

CITY           SKY/WX    TMP DP  RH WIND       PRES   REMARKS
FAIRMONT       CLOUDY    52  45  76 CALM      30.03S
JACKSON        MOCLDY    50  43  76 E6        30.02R
LUVERNE        CLOUDY    54  43  66 N5        30.01S
MARSHALL       PTCLDY    41  32  70 NW13      30.02R
MONTEVIDEO     PTCLDY    41  34  75 W5        30.04R
PIPESTONE      CLOUDY    52  39  62 E3        30.01S
REDWOOD FALLS  MOCLDY    49  45  86 N3        30.01S
TRACY          CLOUDY    53  43  67 CALM      30.02S
WINDOM         MOCLDY    52  37  58 E5        30.02S
WORTHINGTON    MOCLDY    52  39  62 NE5       30.03S
$$

IAZ001>003-012>014-020>022-031-032-NEZ013-014-SDZ071-201100-
NORTHWEST IOWA

CITY           SKY/WX    TMP DP  RH WIND       PRES   REMARKS
CHEROKEE       CLOUDY    58  46  63 S5        29.99S
DENISON        CLOUDY    61  45  55 S13G20    29.98F
ESTHERVILLE    MOCLDY    50  44  80 NE3       30.00S
SIOUX CITY     MOCLDY    58  46  64 SE7       29.96F
SPENCER        MOCLDY    51  44  77 E7        29.99F
STORM LAKE     CLOUDY    59  45  58 S7        30.00F
$$

ABBREVIATIONS USED IN REMARKS
   TC - TEMPERATURE IN CELSIUS
  WCI - WIND CHILL INDEX
   HX - HEAT INDEX
  VSB - VISIBILITY




USA.gov is the U.S. government's official web portal to all federal, state and local government web resources and services.